Location: Nairn
(57.5833°N, 3.8667°W)
Time: 02:16:55
(UTC+00:00)

Transit 2A - Pass Details

Date: 26 November 2020
Orbit: 598 x 960 km, 66.7° (Epoch: 20 January)

Event Time Altitude Azimuth Distance (km) Brightness Sun altitude
Rises 17:08:20 0° 167° (SSE) 3,625 9.6 -10.7°
Reaches altitude 10° 17:11:40 10° 151° (SSE) 2,662 8.7 -11.1°
Maximum altitude 17:15:50 19° 108° (ESE) 2,045 7.8 -11.7°
Enters shadow 17:18:13 15° 80° (E) 2,230 7.8 -12.0°
